Weather in Kadoma

Zimbabwe     18°20′07″S   29°55′11″E
temp.,
°C
wind,
m/s
gust,
m/s
humid.,
%
clouds,
%
prec.,
mm/h
press.,
hPa
HPBL,
m
24 may, tue
tue2423:00+11ese23540 0.0 102038
02:00+9ese23620 0.0 101943
05:00+9ese23660 0.0 101944
08:00+14ese24500 0.0 1020166
11:00+22se23320 0.0 10191155
14:00+25s22250 0.0 10151830
17:00+21s22380 0.0 101618
20:00+16sse34530 0.0 101961
25 may, wed
wed2523:00+14ese39650 0.0 1019142
02:00+13ese36710 0.0 1019105
05:00+11ese23760 0.0 102037
08:00+16ese24580 0.0 1021181
11:00+24ese23320 0.0 10191298
14:00+27ese12240 0.0 10151932
17:00+22se22350 0.0 101613
20:00+18sse22390 0.0 101912
26 may, thu
thu2623:00+15ese36510 0.0 1021109
02:00+13e35530 0.0 102074
05:00+12e35560 0.0 102067
08:00+16ese23460 0.0 1022164
11:00+26se12270 0.0 10201229
14:00+28se23190 0.0 10162115
17:00+23sse11290 0.0 101711
20:00+17se36370 0.0 102183
27 may, fri
fri2723:00+14ese39460 0.0 1022166
02:00+13e310540 0.0 1021197
05:00+12ese310670 0.0 1022178
08:00+16ese48560 0.0 1023269
11:00+24ese33310 0.0 10211310
14:00+27ese23220 0.0 10172164
17:00+22ese23320 0.0 101739
20:00+16ese412490 0.0 1020250
28 may, sat
sat2823:00+15e412600 0.0 1022313
02:00+12ese37740 0.0 1022141
05:00+11ese27840 0.0 1022130
08:00+15e35690 0.0 1023247
11:00+23e22380 0.0 10201258
14:00+26ene22260 0.0 10162067
17:00+22ne11350 0.0 101611
20:00+17se11420 0.0 101812